Location: �terpigny
(49.8910°N, 2.9249°E)
Time: 04:03:34
(UTC+00:00)

ATLAS 5 CENTAUR R/B - Pass Details

Date: 24 October 2021
Orbit: 497 x 1159 km, 63.4° (Epoch: 25 November)

Event Time Altitude Azimuth Distance (km) Brightness Sun altitude
Rises 17:48:40 0° 238° (WSW) 2,625 6.0 -11.8°
Reaches altitude 10° 17:50:46 10° 244° (WSW) 1,783 5.1 -12.1°
Maximum altitude 17:54:37 50° 321° (NW) 745 2.2 -12.7°
Drops below altitude 10° 17:59:04 10° 37° (NE) 2,060 3.9 -13.4°
Enters shadow 17:59:26 - 38° (NE) 2,204 4.0 -13.5°
